ARG1483 SASA-SAEZ

Flight info

Callsign ARG1483
Flight time N/A
Altitude 37000
Route VUL1 PONPI UT681 PUBER UL550 ROS DCT SNT SNT7X
Aircraft B738/M-SDE2E3FGHIRWXY/LB1

Departure

Time 2026-04-28 02:17
Airport Martín Miguel de Güemes International Airport (SASA)

Arrival

Time N/A
Airport Ezeiza International Airport - Ministro Pistarini (SAEZ)
Time Latitude Longitude Altitude Speed Heading
2026-04-28 01:46 -24.84474 -65.47900 4016 ft 0 kts 22°
2026-04-28 02:06 -24.84482 -65.47904 4016 ft 2 kts 16°
2026-04-28 02:06 -24.84499 -65.47905 4016 ft 2 kts 319°
2026-04-28 02:06 -24.84508 -65.47890 4016 ft 2 kts 308°
2026-04-28 02:06 -24.84520 -65.47878 4016 ft 2 kts 303°
2026-04-28 02:07 -24.84525 -65.47863 4016 ft 1 kts 288°
2026-04-28 02:07 -24.84526 -65.47862 4016 ft 0 kts 289°
2026-04-28 02:11 -24.84522 -65.47872 4016 ft 3 kts 291°
2026-04-28 02:11 -24.84505 -65.47921 4016 ft 10 kts 288°
2026-04-28 02:11 -24.84517 -65.48022 4016 ft 17 kts 252°
2026-04-28 02:11 -24.84558 -65.48160 4016 ft 19 kts 251°
2026-04-28 02:12 -24.84609 -65.48317 4016 ft 23 kts 238°
2026-04-28 02:12 -24.84734 -65.48438 4016 ft 21 kts 200°
2026-04-28 02:12 -24.84885 -65.48474 4017 ft 24 kts 191°
2026-04-28 02:12 -24.85058 -65.48511 4016 ft 27 kts 191°
2026-04-28 02:13 -24.85246 -65.48548 4016 ft 28 kts 189°
2026-04-28 02:13 -24.85441 -65.48592 4017 ft 28 kts 191°
2026-04-28 02:13 -24.85627 -65.48634 4018 ft 28 kts 191°
2026-04-28 02:13 -24.85826 -65.48676 4017 ft 30 kts 191°
2026-04-28 02:14 -24.86036 -65.48719 4018 ft 32 kts 191°
2026-04-28 02:14 -24.86259 -65.48766 4016 ft 34 kts 190°
2026-04-28 02:14 -24.86499 -65.48817 4008 ft 36 kts 191°
2026-04-28 02:14 -24.86748 -65.48871 4002 ft 37 kts 191°
2026-04-28 02:15 -24.87034 -65.48848 4017 ft 19 kts 161°
2026-04-28 02:15 -24.87167 -65.48800 4016 ft 22 kts 162°
2026-04-28 02:15 -24.87299 -65.48849 4017 ft 23 kts 251°
2026-04-28 02:16 -24.87271 -65.48949 4018 ft 14 kts 319°
2026-04-28 02:16 -24.87187 -65.48963 4018 ft 0 kts
2026-04-28 02:16 -24.87167 -65.48959 4018 ft 9 kts
2026-04-28 02:16 -24.86845 -65.48891 4004 ft 88 kts 11°
2026-04-28 02:17 -24.85999 -65.48711 4019 ft 157 kts 11°
2026-04-28 02:17 -24.84757 -65.48483 4346 ft 195 kts
2026-04-28 02:17 -24.83327 -65.48223 4957 ft 220 kts 10°
2026-04-28 02:17 -24.81740 -65.47901 5454 ft 240 kts 12°
2026-04-28 02:18 -24.80176 -65.47226 6061 ft 248 kts 32°
2026-04-28 02:18 -24.78820 -65.46050 6779 ft 249 kts 42°
2026-04-28 02:18 -24.77668 -65.44680 7685 ft 238 kts 52°
2026-04-28 02:18 -24.76730 -65.43030 7792 ft 273 kts 63°
2026-04-28 02:19 -24.76148 -65.41013 8281 ft 287 kts 87°
2026-04-28 02:19 -24.76306 -65.38819 9131 ft 290 kts 97°
2026-04-28 02:19 -24.76652 -65.36612 9897 ft 296 kts 100°
2026-04-28 02:19 -24.77333 -65.34461 10551 ft 302 kts 123°
2026-04-28 02:20 -24.78818 -65.32831 11227 ft 306 kts 150°
2026-04-28 02:20 -24.80878 -65.32069 11436 ft 326 kts 176°
2026-04-28 02:20 -24.83213 -65.32001 11617 ft 346 kts 181°
2026-04-28 02:20 -24.85676 -65.32021 12014 ft 358 kts 182°
2026-04-28 02:21 -24.88180 -65.32048 12646 ft 361 kts 182°
2026-04-28 02:21 -24.90697 -65.32062 13365 ft 362 kts 182°
2026-04-28 02:21 -24.93228 -65.32062 14050 ft 364 kts 182°
2026-04-28 02:21 -24.95774 -65.32053 14591 ft 368 kts 182°
2026-04-28 02:22 -24.98317 -65.32037 15139 ft 371 kts 182°
2026-04-28 02:22 -25.00909 -65.32020 15695 ft 374 kts 182°
2026-04-28 02:22 -25.03524 -65.32003 16318 ft 377 kts 183°
2026-04-28 02:22 -25.06165 -65.31986 16916 ft 380 kts 183°
2026-04-28 02:23 -25.08820 -65.31969 17484 ft 384 kts 184°
2026-04-28 02:23 -25.11502 -65.31953 18059 ft 387 kts 184°
2026-04-28 02:23 -25.14218 -65.31714 18548 ft 397 kts 173°
2026-04-28 02:23 -25.16936 -65.31024 19068 ft 401 kts 171°
2026-04-28 02:24 -25.19656 -65.30266 19538 ft 406 kts 171°
2026-04-28 02:24 -25.22410 -65.29484 20002 ft 410 kts 171°
2026-04-28 02:24 -25.25184 -65.28697 20519 ft 412 kts 172°
2026-04-28 02:24 -25.27974 -65.27913 21013 ft 415 kts 172°
2026-04-28 02:25 -25.30754 -65.27141 21434 ft 419 kts 173°
2026-04-28 02:25 -25.33596 -65.26359 21876 ft 423 kts 173°
2026-04-28 02:25 -25.36471 -65.25572 22342 ft 426 kts 173°
2026-04-28 02:25 -25.39358 -65.24782 22818 ft 429 kts 174°
2026-04-28 02:26 -25.42266 -65.23988 23270 ft 432 kts 174°
2026-04-28 02:26 -25.45208 -65.23185 23700 ft 436 kts 174°
2026-04-28 02:26 -25.48161 -65.22379 24051 ft 439 kts 174°
2026-04-28 02:26 -25.51138 -65.21565 24386 ft 442 kts 174°
2026-04-28 02:27 -25.54137 -65.20745 24702 ft 445 kts 174°
2026-04-28 02:27 -25.57114 -65.19929 25062 ft 448 kts 174°
2026-04-28 02:27 -25.60150 -65.19097 25413 ft 451 kts 174°
2026-04-28 02:27 -25.63210 -65.18259 25736 ft 454 kts 174°
2026-04-28 02:28 -25.66298 -65.17412 26082 ft 457 kts 175°
2026-04-28 02:28 -25.69390 -65.16563 26419 ft 460 kts 175°
2026-04-28 02:28 -25.72505 -65.15708 26720 ft 462 kts 175°
2026-04-28 02:28 -25.75639 -65.14848 27000 ft 465 kts 175°
2026-04-28 02:29 -25.78788 -65.13982 27304 ft 468 kts 175°
2026-04-28 02:29 -25.81958 -65.13110 27594 ft 470 kts 175°
2026-04-28 02:29 -25.85142 -65.12233 27879 ft 472 kts 175°
2026-04-28 02:29 -25.88299 -65.11364 28172 ft 474 kts 175°
2026-04-28 02:30 -25.91547 -65.10469 28453 ft 476 kts 175°
2026-04-28 02:30 -25.94766 -65.09581 28728 ft 478 kts 175°
2026-04-28 02:30 -25.97966 -65.08699 28993 ft 480 kts 175°
2026-04-28 02:30 -26.01219 -65.07802 29264 ft 482 kts 175°
2026-04-28 02:31 -26.04485 -65.06900 29528 ft 484 kts 175°
2026-04-28 02:31 -26.07763 -65.05995 29793 ft 486 kts 175°
2026-04-28 02:31 -26.11050 -65.05086 30039 ft 488 kts 175°
2026-04-28 02:31 -26.14353 -65.04173 30266 ft 490 kts 175°
2026-04-28 02:32 -26.17678 -65.03253 30511 ft 491 kts 175°
2026-04-28 02:32 -26.19881 -65.02642 30708 ft 490 kts 175°
2026-04-28 02:32 -26.24252 -65.01427 31122 ft 488 kts 175°
2026-04-28 02:32 -26.27548 -65.00511 31392 ft 488 kts 175°
2026-04-28 02:33 -26.29774 -64.99894 31569 ft 488 kts 175°
2026-04-28 02:33 -26.34148 -64.98680 31927 ft 488 kts 175°
2026-04-28 02:33 -26.37442 -64.97766 32241 ft 488 kts 175°
2026-04-28 02:33 -26.39663 -64.97149 32453 ft 487 kts 176°
2026-04-28 02:34 -26.44019 -64.95938 32842 ft 487 kts 176°
2026-04-28 02:34 -26.47303 -64.95025 33118 ft 487 kts 176°
2026-04-28 02:34 -26.49524 -64.94407 33313 ft 486 kts 176°
2026-04-28 02:34 -26.52764 -64.93504 33595 ft 486 kts 176°
2026-04-28 02:35 -26.56044 -64.92590 33844 ft 486 kts 176°
2026-04-28 02:35 -26.59331 -64.91674 34083 ft 486 kts 176°
2026-04-28 02:35 -26.62612 -64.90760 34289 ft 486 kts 176°
2026-04-28 02:35 -26.65895 -64.89844 34514 ft 486 kts 176°
2026-04-28 02:36 -26.69171 -64.88929 34770 ft 485 kts 177°
2026-04-28 02:36 -26.72440 -64.88014 35000 ft 484 kts 177°
2026-04-28 02:36 -26.75711 -64.87100 35210 ft 485 kts 177°
2026-04-28 02:36 -26.78990 -64.86183 35435 ft 484 kts 177°
2026-04-28 02:37 -26.82214 -64.85281 35652 ft 484 kts 177°
2026-04-28 02:37 -26.85478 -64.84366 35868 ft 484 kts 177°
2026-04-28 02:37 -26.88740 -64.83452 36083 ft 483 kts 177°
2026-04-28 02:37 -26.92005 -64.82537 36278 ft 483 kts 178°
2026-04-28 02:38 -26.95271 -64.81621 36482 ft 483 kts 178°
2026-04-28 02:38 -26.98535 -64.80705 36688 ft 483 kts 178°
2026-04-28 02:38 -27.01790 -64.79790 36894 ft 483 kts 178°
2026-04-28 02:38 -27.05054 -64.78872 37087 ft 483 kts 178°
2026-04-28 02:39 -27.08320 -64.77955 37101 ft 485 kts 178°
2026-04-28 02:39 -27.14864 -64.76113 37114 ft 484 kts 178°
2026-04-28 02:40 -27.21385 -64.74270 37109 ft 480 kts 178°
2026-04-28 02:40 -27.27810 -64.72456 37112 ft 477 kts 178°
2026-04-28 02:41 -27.34238 -64.70642 37120 ft 476 kts 178°
2026-04-28 02:41 -27.40662 -64.68826 37115 ft 475 kts 178°
2026-04-28 02:42 -27.47080 -64.67009 37121 ft 476 kts 178°
2026-04-28 02:42 -27.53508 -64.64923 37114 ft 491 kts 168°
2026-04-28 02:42 -27.56605 -64.63182 37122 ft 504 kts 160°
2026-04-28 02:43 -27.59635 -64.61162 37125 ft 507 kts 159°
2026-04-28 02:43 -27.65653 -64.56979 37123 ft 509 kts 158°
2026-04-28 02:44 -27.71696 -64.52819 37117 ft 509 kts 159°
2026-04-28 02:44 -27.77734 -64.48735 37116 ft 509 kts 159°
2026-04-28 02:45 -27.83819 -64.44641 37110 ft 509 kts 159°
2026-04-28 02:45 -27.89897 -64.40543 37113 ft 508 kts 159°
2026-04-28 02:46 -27.95955 -64.36449 37111 ft 507 kts 158°
2026-04-28 02:46 -28.02002 -64.32355 37115 ft 505 kts 158°
2026-04-28 02:47 -28.08033 -64.28268 37118 ft 504 kts 158°
2026-04-28 02:47 -28.14045 -64.24188 37118 ft 502 kts 158°
2026-04-28 02:48 -28.19998 -64.20142 37114 ft 501 kts 158°
2026-04-28 02:48 -28.25969 -64.16080 37118 ft 500 kts 158°
2026-04-28 02:49 -28.31978 -64.11995 37130 ft 507 kts 158°
2026-04-28 02:49 -28.38073 -64.07845 37132 ft 513 kts 157°
2026-04-28 02:50 -28.44211 -64.03652 37123 ft 515 kts 157°
2026-04-28 02:50 -28.50315 -63.99474 37123 ft 516 kts 157°
2026-04-28 02:51 -28.56463 -63.95262 37116 ft 515 kts 156°
2026-04-28 02:51 -28.62598 -63.91055 37117 ft 514 kts 156°
2026-04-28 02:52 -28.68711 -63.86857 37122 ft 512 kts 156°
2026-04-28 02:52 -28.74805 -63.82666 37118 ft 511 kts 156°
2026-04-28 02:53 -28.80889 -63.78478 37125 ft 509 kts 156°
2026-04-28 02:53 -28.86941 -63.74279 37123 ft 508 kts 156°
2026-04-28 02:54 -28.92923 -63.70110 37130 ft 507 kts 156°
2026-04-28 02:54 -28.98936 -63.65918 37129 ft 506 kts 156°
2026-04-28 02:55 -29.04935 -63.61732 37129 ft 505 kts 156°
2026-04-28 02:55 -29.10936 -63.57540 37134 ft 505 kts 155°
2026-04-28 02:56 -29.16925 -63.53350 37135 ft 504 kts 155°
2026-04-28 02:56 -29.22907 -63.49159 37134 ft 504 kts 155°
2026-04-28 02:57 -29.28891 -63.44960 37137 ft 504 kts 155°
2026-04-28 02:57 -29.34875 -63.40754 37133 ft 504 kts 155°
2026-04-28 02:58 -29.40857 -63.36543 37136 ft 504 kts 155°
2026-04-28 02:58 -29.46794 -63.32359 37144 ft 504 kts 155°
2026-04-28 02:59 -29.52770 -63.28128 37132 ft 504 kts 155°
2026-04-28 02:59 -29.58739 -63.23888 37132 ft 504 kts 155°
2026-04-28 03:00 -29.64708 -63.19643 37131 ft 504 kts 155°
2026-04-28 03:00 -29.70675 -63.15395 37133 ft 504 kts 155°
2026-04-28 03:01 -29.76633 -63.11148 37135 ft 504 kts 155°
2026-04-28 03:01 -29.82593 -63.06892 37135 ft 503 kts 155°
2026-04-28 03:02 -29.87547 -63.03351 37138 ft 503 kts 155°